Tracking 35331 objects as of 16-Sep-2026
HD Live streaming from Space Station
objects crossing your sky now

STARLINK-3869


STARLINK-3869 is no longer on orbit
STARLINK-3869 is classified as:


NORAD ID: 52547
Int'l Code: 2022-051Q
Launch date: May 13, 2022
Source: United States (US)
Launch site: AIR FORCE WESTERN TEST RANGE (AFWTR)
Decay date: 2025-04-23
Your satellite tracking list
Your tracking list is empty




NASA's NSSDC Master Catalog

Two Line Element Set (TLE):
1 52547U 22051Q   25112.93424654  .19977701  12505-4  28228-3 0  9994
2 52547  53.1897  84.0580 0007860 234.4553 222.9546 16.48436297163718
Source of the keplerian elements: AFSPC